Time,TemperatureF,DewpointF,PressureIn,WindDirection,WindDirectionDegrees,WindSpeedMPH,WindSpeedGustMPH,Humidity,HourlyPrecipIn,Conditions,Clouds,dailyrainin,SolarRadiationWatts/m^2,SoftwareType,DateUTC
2013-05-18 00:01:00,51.0,50.0,-100.00,NNE,24,2.0,5.0,97,0.00,,,0.48,0.000000,,2013-05-18 06:01:00,
2013-05-18 00:32:00,51.0,50.0,-100.00,NNE,24,2.0,5.0,97,0.00,,,0.48,0.000000,,2013-05-18 06:32:00,
2013-05-18 00:42:00,51.0,50.0,-100.00,NNE,24,2.0,5.0,97,0.00,,,0.48,0.000000,,2013-05-18 06:42:00,
2013-05-18 00:52:00,51.0,50.0,-100.00,NNE,24,2.0,5.0,97,0.00,,,0.48,0.000000,,2013-05-18 06:52:00,
2013-05-18 01:01:00,51.0,50.0,-100.00,ESE,117,2.0,4.0,96,0.00,,,0.48,0.000000,,2013-05-18 07:01:00,
2013-05-18 01:32:00,51.0,50.0,-100.00,ESE,117,2.0,4.0,96,0.00,,,0.48,0.000000,,2013-05-18 07:32:00,
2013-05-18 01:43:00,51.0,50.0,-100.00,ESE,117,2.0,4.0,96,0.00,,,0.48,0.000000,,2013-05-18 07:43:00,
2013-05-18 01:52:00,51.0,50.0,-100.00,ESE,117,2.0,4.0,96,0.00,,,0.48,0.000000,,2013-05-18 07:52:00,
2013-05-18 02:01:00,52.0,51.0,-100.00,West,280,1.0,5.0,95,0.00,,,0.48,0.000000,,2013-05-18 08:01:00,
2013-05-18 02:33:00,52.0,51.0,-100.00,West,280,1.0,5.0,95,0.00,,,0.48,0.000000,,2013-05-18 08:33:00,
2013-05-18 02:42:00,52.0,51.0,-100.00,West,280,1.0,5.0,95,0.00,,,0.48,0.000000,,2013-05-18 08:42:00,
2013-05-18 02:52:00,52.0,51.0,-100.00,West,280,1.0,5.0,95,0.00,,,0.48,0.000000,,2013-05-18 08:52:00,
2013-05-18 03:01:00,50.0,49.0,-100.00,WNW,291,0.0,0.0,96,0.00,,,0.41,0.000000,,2013-05-18 09:01:00,
2013-05-18 03:33:00,50.0,49.0,-100.00,WNW,291,0.0,0.0,96,0.00,,,0.41,0.000000,,2013-05-18 09:33:00,
2013-05-18 03:43:00,50.0,49.0,-100.00,WNW,291,0.0,0.0,96,0.00,,,0.41,0.000000,,2013-05-18 09:43:00,
2013-05-18 03:53:00,50.0,49.0,-100.00,WNW,291,0.0,0.0,96,0.00,,,0.41,0.000000,,2013-05-18 09:53:00,
2013-05-18 04:01:00,49.0,49.0,-100.00,SW,231,0.0,0.0,99,0.00,,,0.40,0.000000,,2013-05-18 10:01:00,
2013-05-18 04:23:00,49.0,49.0,-100.00,SW,231,0.0,0.0,99,0.00,,,0.40,0.000000,,2013-05-18 10:23:00,
2013-05-18 04:33:00,49.0,49.0,-100.00,SW,231,0.0,0.0,99,0.00,,,0.40,0.000000,,2013-05-18 10:33:00,
2013-05-18 04:42:00,49.0,49.0,-100.00,SW,231,0.0,0.0,99,0.00,,,0.40,0.000000,,2013-05-18 10:42:00,
2013-05-18 04:53:00,49.0,49.0,-100.00,SW,231,0.0,0.0,99,0.00,,,0.40,0.000000,,2013-05-18 10:53:00,
2013-05-18 05:01:00,50.0,50.0,-100.00,WSW,257,1.0,9.0,100,0.00,,,0.40,0.000000,,2013-05-18 11:01:00,
2013-05-18 05:33:00,50.0,50.0,-100.00,WSW,257,1.0,9.0,100,0.00,,,0.40,0.000000,,2013-05-18 11:33:00,
2013-05-18 05:42:00,50.0,50.0,-100.00,WSW,257,1.0,9.0,100,0.00,,,0.40,0.000000,,2013-05-18 11:42:00,
2013-05-18 05:52:00,50.0,50.0,-100.00,WSW,257,1.0,9.0,100,0.00,,,0.40,0.000000,,2013-05-18 11:52:00,
2013-05-18 06:01:00,50.0,49.0,-100.00,NNW,338,0.0,0.0,96,0.00,,,0.40,5.000000,,2013-05-18 12:01:00,
2013-05-18 06:33:00,50.0,49.0,-100.00,NNW,338,0.0,0.0,96,0.00,,,0.40,5.000000,,2013-05-18 12:33:00,
2013-05-18 06:42:00,50.0,49.0,-100.00,NNW,338,0.0,0.0,96,0.00,,,0.40,5.000000,,2013-05-18 12:42:00,
2013-05-18 06:52:00,50.0,49.0,-100.00,NNW,338,0.0,0.0,96,0.00,,,0.40,5.000000,,2013-05-18 12:52:00,
2013-05-18 07:01:00,53.0,51.0,-100.00,WNW,293,1.0,3.0,92,0.00,,,0.40,105.000000,,2013-05-18 13:01:00,
2013-05-18 07:33:00,53.0,51.0,-100.00,WNW,293,1.0,3.0,92,0.00,,,0.40,105.000000,,2013-05-18 13:33:00,
2013-05-18 07:43:00,53.0,51.0,-100.00,WNW,293,1.0,3.0,92,0.00,,,0.40,105.000000,,2013-05-18 13:43:00,
2013-05-18 07:53:00,53.0,51.0,-100.00,WNW,293,1.0,3.0,92,0.00,,,0.40,105.000000,,2013-05-18 13:53:00,
2013-05-18 08:01:00,51.0,50.0,-100.00,WSW,243,1.0,6.0,98,0.00,,,0.40,189.000000,,2013-05-18 14:01:00,
2013-05-18 08:33:00,51.0,50.0,-100.00,WSW,243,1.0,6.0,98,0.00,,,0.40,189.000000,,2013-05-18 14:33:00,
2013-05-18 08:42:00,51.0,50.0,-100.00,WSW,243,1.0,6.0,98,0.00,,,0.40,189.000000,,2013-05-18 14:42:00,
2013-05-18 08:54:00,51.0,50.0,-100.00,WSW,243,1.0,6.0,98,0.00,,,0.40,189.000000,,2013-05-18 14:54:00,
2013-05-18 09:01:00,53.0,53.0,-100.00,NW,307,1.0,2.0,100,0.00,,,-99.99,175.000000,,2013-05-18 15:01:00,
2013-05-18 09:33:00,53.0,53.0,-100.00,NW,307,1.0,2.0,100,0.00,,,-99.99,175.000000,,2013-05-18 15:33:00,
2013-05-18 09:43:00,53.0,53.0,-100.00,NW,307,1.0,2.0,100,0.00,,,-99.99,175.000000,,2013-05-18 15:43:00,
2013-05-18 09:53:00,53.0,53.0,-100.00,NW,307,1.0,2.0,100,0.00,,,-99.99,175.000000,,2013-05-18 15:53:00,
2013-05-18 10:01:00,53.0,53.0,-100.00,NW,322,7.0,14.0,100,0.00,,,0.40,152.000000,,2013-05-18 16:01:00,
2013-05-18 10:33:00,53.0,53.0,-100.00,NW,322,7.0,14.0,100,0.00,,,0.40,152.000000,,2013-05-18 16:33:00,
2013-05-18 10:42:00,53.0,53.0,-100.00,NW,322,7.0,14.0,100,0.00,,,0.40,152.000000,,2013-05-18 16:42:00,
2013-05-18 10:52:00,53.0,53.0,-100.00,NW,322,7.0,14.0,100,0.00,,,0.40,152.000000,,2013-05-18 16:52:00,
2013-05-18 11:01:00,55.0,52.0,-100.00,NNW,347,5.0,11.0,89,0.00,,,-99.99,236.000000,,2013-05-18 17:01:00,
2013-05-18 11:33:00,55.0,52.0,-100.00,NNW,347,5.0,11.0,89,0.00,,,-99.99,236.000000,,2013-05-18 17:33:00,
2013-05-18 11:42:00,55.0,52.0,-100.00,NNW,347,5.0,11.0,89,0.00,,,-99.99,236.000000,,2013-05-18 17:42:00,
2013-05-18 11:52:00,55.0,52.0,-100.00,NNW,347,5.0,11.0,89,0.00,,,-99.99,236.000000,,2013-05-18 17:52:00,
2013-05-18 12:01:00,55.0,53.0,-100.00,North,351,3.0,13.0,93,0.00,,,0.40,175.000000,,2013-05-18 18:01:00,
2013-05-18 12:32:00,55.0,53.0,-100.00,North,351,3.0,13.0,93,0.00,,,0.40,175.000000,,2013-05-18 18:32:00,
2013-05-18 12:42:00,55.0,53.0,-100.00,North,351,3.0,13.0,93,0.00,,,0.40,175.000000,,2013-05-18 18:42:00,
2013-05-18 12:52:00,55.0,53.0,-100.00,North,351,3.0,13.0,93,0.00,,,0.40,175.000000,,2013-05-18 18:52:00,
2013-05-18 13:01:00,60.0,53.0,-100.00,ENE,59,6.0,15.0,78,0.00,,,0.40,711.000000,,2013-05-18 19:01:00,
2013-05-18 13:32:00,60.0,53.0,-100.00,ENE,59,6.0,15.0,78,0.00,,,0.40,711.000000,,2013-05-18 19:32:00,
2013-05-18 13:42:00,60.0,53.0,-100.00,ENE,59,6.0,15.0,78,0.00,,,0.40,711.000000,,2013-05-18 19:42:00,
2013-05-18 13:52:00,60.0,53.0,-100.00,ENE,59,6.0,15.0,78,0.00,,,0.40,711.000000,,2013-05-18 19:52:00,
2013-05-18 14:01:00,56.0,50.0,-100.00,NNE,17,7.0,16.0,81,0.00,,,-99.99,166.000000,,2013-05-18 20:01:00,
2013-05-18 14:32:00,56.0,50.0,-100.00,NNE,17,7.0,16.0,81,0.00,,,-99.99,166.000000,,2013-05-18 20:32:00,
2013-05-18 14:42:00,56.0,50.0,-100.00,NNE,17,7.0,16.0,81,0.00,,,-99.99,166.000000,,2013-05-18 20:42:00,
2013-05-18 14:52:00,56.0,50.0,-100.00,NNE,17,7.0,16.0,81,0.00,,,-99.99,166.000000,,2013-05-18 20:52:00,
2013-05-18 15:01:00,58.0,54.0,-100.00,NNE,15,7.0,11.0,86,0.00,,,0.40,182.000000,,2013-05-18 21:01:00,
2013-05-18 15:22:00,58.0,54.0,-100.00,NNE,15,7.0,11.0,86,0.00,,,0.40,182.000000,,2013-05-18 21:22:00,
2013-05-18 15:33:00,58.0,54.0,-100.00,NNE,15,7.0,11.0,86,0.00,,,0.40,182.000000,,2013-05-18 21:33:00,
2013-05-18 15:43:00,58.0,54.0,-100.00,NNE,15,7.0,11.0,86,0.00,,,0.40,182.000000,,2013-05-18 21:43:00,
2013-05-18 15:53:00,58.0,54.0,-100.00,NNE,15,7.0,11.0,86,0.00,,,0.40,182.000000,,2013-05-18 21:53:00,
2013-05-18 16:01:00,56.0,51.0,-100.00,North,7,7.0,11.0,82,0.00,,,0.40,131.000000,,2013-05-18 22:01:00,
2013-05-18 16:23:00,56.0,51.0,-100.00,North,7,7.0,11.0,82,0.00,,,0.40,131.000000,,2013-05-18 22:23:00,
2013-05-18 16:33:00,56.0,51.0,-100.00,North,7,7.0,11.0,82,0.00,,,0.40,131.000000,,2013-05-18 22:33:00,
2013-05-18 16:42:00,56.0,51.0,-100.00,North,7,7.0,11.0,82,0.00,,,0.40,131.000000,,2013-05-18 22:42:00,
2013-05-18 16:53:00,56.0,51.0,-100.00,North,7,7.0,11.0,82,0.00,,,0.40,131.000000,,2013-05-18 22:53:00,
2013-05-18 17:01:00,54.0,53.0,-100.00,WNW,294,15.0,21.0,98,0.04,,,0.43,76.000000,,2013-05-18 23:01:00,
2013-05-18 17:32:00,54.0,53.0,-100.00,WNW,294,15.0,21.0,98,0.04,,,0.43,76.000000,,2013-05-18 23:32:00,
2013-05-18 17:42:00,54.0,53.0,-100.00,WNW,294,15.0,21.0,98,0.04,,,0.43,76.000000,,2013-05-18 23:42:00,
2013-05-18 17:53:00,54.0,53.0,-100.00,WNW,294,15.0,21.0,98,0.04,,,0.43,76.000000,,2013-05-18 23:53:00,
2013-05-18 18:01:00,53.0,51.0,-100.00,West,277,12.0,22.0,94,0.00,,,0.26,186.000000,,2013-05-19 00:01:00,
2013-05-18 18:32:00,53.0,51.0,-100.00,West,277,12.0,22.0,94,0.00,,,0.26,186.000000,,2013-05-19 00:32:00,
2013-05-18 18:42:00,53.0,51.0,-100.00,West,277,12.0,22.0,94,0.00,,,0.26,186.000000,,2013-05-19 00:42:00,
2013-05-18 18:52:00,53.0,51.0,-100.00,West,277,12.0,22.0,94,0.00,,,0.26,186.000000,,2013-05-19 00:52:00,
2013-05-18 19:01:00,54.0,52.0,-100.00,NW,323,8.0,16.0,93,0.00,,,0.08,107.000000,,2013-05-19 01:01:00,
2013-05-18 19:22:00,54.0,52.0,-100.00,NW,323,8.0,16.0,93,0.00,,,0.08,107.000000,,2013-05-19 01:22:00,
2013-05-18 19:32:00,54.0,52.0,-100.00,NW,323,8.0,16.0,93,0.00,,,0.08,107.000000,,2013-05-19 01:32:00,
2013-05-18 19:42:00,54.0,52.0,-100.00,NW,323,8.0,16.0,93,0.00,,,0.08,107.000000,,2013-05-19 01:42:00,
2013-05-18 19:52:00,54.0,52.0,-100.00,NW,323,8.0,16.0,93,0.00,,,0.08,107.000000,,2013-05-19 01:52:00,
2013-05-18 20:01:00,52.0,50.0,-100.00,NW,315,16.0,20.0,94,0.00,,,0.04,27.000000,,2013-05-19 02:01:00,
2013-05-18 20:22:00,52.0,50.0,-100.00,NW,315,16.0,20.0,94,0.00,,,0.04,27.000000,,2013-05-19 02:22:00,
2013-05-18 20:32:00,52.0,50.0,-100.00,NW,315,16.0,20.0,94,0.00,,,0.04,27.000000,,2013-05-19 02:32:00,
2013-05-18 20:42:00,52.0,50.0,-100.00,NW,315,16.0,20.0,94,0.00,,,0.04,27.000000,,2013-05-19 02:42:00,
2013-05-18 20:52:00,52.0,50.0,-100.00,NW,315,16.0,20.0,94,0.00,,,0.04,27.000000,,2013-05-19 02:52:00,
2013-05-18 21:01:00,52.0,51.0,-100.00,NNW,336,12.0,18.0,96,0.00,,,0.04,6.000000,,2013-05-19 03:01:00,
2013-05-18 21:33:00,52.0,51.0,-100.00,NNW,336,12.0,18.0,96,0.00,,,0.04,6.000000,,2013-05-19 03:33:00,
2013-05-18 21:43:00,52.0,51.0,-100.00,NNW,336,12.0,18.0,96,0.00,,,0.04,6.000000,,2013-05-19 03:43:00,
2013-05-18 21:53:00,52.0,51.0,-100.00,NNW,336,12.0,18.0,96,0.00,,,0.04,6.000000,,2013-05-19 03:53:00,
2013-05-18 22:01:00,51.0,50.0,-100.00,NW,319,11.0,16.0,97,0.00,,,0.04,0.000000,,2013-05-19 04:01:00,
2013-05-18 22:33:00,51.0,50.0,-100.00,NW,319,11.0,16.0,97,0.00,,,0.04,0.000000,,2013-05-19 04:33:00,
2013-05-18 22:42:00,51.0,50.0,-100.00,NW,319,11.0,16.0,97,0.00,,,0.04,0.000000,,2013-05-19 04:42:00,
2013-05-18 22:53:00,51.0,50.0,-100.00,NW,319,11.0,16.0,97,0.00,,,0.04,0.000000,,2013-05-19 04:53:00,
2013-05-18 23:01:00,51.0,50.0,-100.00,NW,307,11.0,16.0,97,0.00,,,0.04,0.000000,,2013-05-19 05:01:00,
2013-05-18 23:32:00,51.0,50.0,-100.00,NW,307,11.0,16.0,97,0.00,,,0.04,0.000000,,2013-05-19 05:32:00,
2013-05-18 23:42:00,51.0,50.0,-100.00,NW,307,11.0,16.0,97,0.00,,,0.04,0.000000,,2013-05-19 05:42:00,
2013-05-18 23:52:00,51.0,50.0,-100.00,NW,307,11.0,16.0,97,0.00,,,0.04,0.000000,,2013-05-19 05:52:00,